| time (UTC) | temp F | wind direction | speed MPH | gust MPH | rain 1hr in | rain 24hr in | rain mn in | humidity % | barometer mb |
| 20260510075621 | 72 | 126 | 2.0 | 6.0 | 0.00 | 0.00 | 0.00 | 42 | 1015.8 |
| 20260510075132 | 72 | 109 | 3.0 | 6.0 | 0.00 | 0.00 | 0.00 | 42 | 1015.7 |
| 20260510074614 | 73 | 65 | 3.0 | 6.0 | 0.00 | 0.00 | 0.00 | 41 | 1015.7 |
| 20260510074123 | 73 | 109 | 2.0 | 5.0 | 0.00 | 0.00 | 0.00 | 41 | 1015.8 |
| 20260510073613 | 73 | 70 | 3.0 | 7.0 | 0.00 | 0.00 | 0.00 | 41 | 1015.7 |
| 20260510073117 | 72 | 65 | 3.0 | 7.0 | 0.00 | 0.00 | 0.00 | 41 | 1015.8 |
| 20260510072628 | 72 | 54 | 4.0 | 7.0 | 0.00 | 0.00 | 0.00 | 39 | 1015.7 |
| 20260510072158 | 72 | 64 | 3.0 | 6.0 | 0.00 | 0.00 | 0.00 | 38 | 1015.7 |
| 20260510071620 | 72 | 58 | 4.0 | 7.0 | 0.00 | 0.00 | 0.00 | 38 | 1015.8 |
| 20260510071151 | 73 | 84 | 3.0 | 7.0 | 0.00 | 0.00 | 0.00 | 39 | 1015.8 |
| 20260510070612 | 72 | 127 | 3.0 | 5.0 | 0.00 | 0.00 | 0.00 | 40 | 1015.7 |
| 20260510070132 | 72 | 77 | 3.0 | 7.0 | 0.00 | 0.00 | 0.00 | 42 | 1015.7 |
| 20260510065618 | 72 | 56 | 3.0 | 7.0 | 0.00 | 0.00 | 0.00 | 42 | 1015.8 |
| 20260510065127 | 73 | 115 | 4.0 | 7.0 | 0.00 | 0.00 | 0.00 | 42 | 1015.8 |
| 20260510064637 | 72 | 157 | 4.0 | 9.0 | 0.00 | 0.00 | 0.00 | 42 | 1015.9 |
| 20260510064120 | 72 | 18 | 5.0 | 9.0 | 0.00 | 0.00 | 0.00 | 42 | 1015.8 |
| 20260510063630 | 72 | 91 | 4.0 | 9.0 | 0.00 | 0.00 | 0.00 | 43 | 1015.8 |
| 20260510063112 | 72 | 41 | 5.0 | 9.0 | 0.00 | 0.00 | 0.00 | 42 | 1015.8 |
| 20260510062642 | 73 | 79 | 5.0 | 8.0 | 0.00 | 0.00 | 0.00 | 42 | 1015.9 |
| 20260510062115 | 73 | 65 | 3.0 | 7.0 | 0.00 | 0.00 | 0.00 | 42 | 1015.8 |
| 20260510061622 | 73 | 75 | 3.0 | 7.0 | 0.00 | 0.00 | 0.00 | 43 | 1015.8 |
| 20260510061153 | 73 | 54 | 2.0 | 7.0 | 0.00 | 0.00 | 0.00 | 41 | 1015.9 |
| 20260510060614 | 73 | 100 | 3.0 | 7.0 | 0.00 | 0.00 | 0.00 | 41 | 1016.0 |
| 20260510060123 | 73 | 91 | 2.0 | 8.0 | 0.00 | 0.00 | 0.00 | 43 | 1016.1 |
| 20260510055632 | 72 | 110 | 5.0 | 8.0 | 0.00 | 0.00 | 0.00 | 45 | 1016.1 |
| 20260510055115 | 72 | 23 | 5.0 | 9.0 | 0.00 | 0.00 | 0.00 | 45 | 1016.1 |
| 20260510054624 | 72 | 63 | 5.0 | 9.0 | 0.00 | 0.00 | 0.00 | 44 | 1016.2 |
| 20260510053617 | 72 | 79 | 5.0 | 10.0 | 0.00 | 0.00 | 0.00 | 44 | 1016.2 |
| 20260510053147 | 73 | 57 | 5.0 | 8.0 | 0.00 | 0.00 | 0.00 | 44 | 1016.2 |
| 20260510052636 | 72 | 189 | 3.0 | 7.0 | 0.00 | 0.00 | 0.00 | 44 | 1016.2 |
| 20260510052139 | 72 | 4 | 4.0 | 8.0 | 0.00 | 0.00 | 0.00 | 45 | 1016.3 |
| 20260510051628 | 72 | 34 | 5.0 | 8.0 | 0.00 | 0.00 | 0.00 | 44 | 1016.4 |
| 20260510051136 | 72 | 69 | 4.0 | 9.0 | 0.00 | 0.00 | 0.00 | 45 | 1016.6 |
| 20260510050619 | 71 | 68 | 6.0 | 9.0 | 0.00 | 0.00 | 0.00 | 48 | 1016.7 |
| 20260510045617 | 71 | 46 | 6.0 | 10.0 | 0.00 | 0.00 | 0.00 | 46 | 1016.9 |
| 20260510045123 | 71 | 68 | 5.0 | 9.0 | 0.00 | 0.00 | 0.00 | 47 | 1016.9 |
| 20260510044632 | 71 | 52 | 4.0 | 9.0 | 0.00 | 0.00 | 0.00 | 47 | 1017.0 |
| 20260510044115 | 71 | 68 | 6.0 | 9.0 | 0.00 | 0.00 | 0.00 | 45 | 1017.1 |
| 20260510043625 | 72 | 18 | 6.0 | 9.0 | 0.00 | 0.00 | 0.00 | 45 | 1017.0 |
| 20260510043133 | 73 | 121 | 3.0 | 7.0 | 0.00 | 0.00 | 0.00 | 44 | 1017.1 |
| 20260510042615 | 72 | 80 | 3.0 | 6.0 | 0.00 | 0.00 | 0.00 | 46 | 1017.3 |
| 20260510042115 | 72 | 31 | 2.0 | 6.0 | 0.00 | 0.00 | 0.00 | 44 | 1017.3 |
| 20260510041620 | 71 | 187 | 2.0 | 7.0 | 0.00 | 0.00 | 0.00 | 44 | 1017.3 |
| 20260510041131 | 72 | 46 | 5.0 | 7.0 | 0.00 | 0.00 | 0.00 | 45 | 1017.3 |
| 20260510040613 | 71 | 61 | 3.0 | 6.0 | 0.00 | 0.00 | 0.00 | 47 | 1017.4 |
| 20260510040143 | 71 | 70 | 3.0 | 7.0 | 0.00 | 0.00 | 0.00 | 45 | 1017.6 |
| 20260510035630 | 71 | 101 | 2.0 | 8.0 | 0.00 | 0.00 | 0.00 | 45 | 1017.5 |
| 20260510035135 | 71 | 142 | 3.0 | 8.0 | 0.00 | 0.00 | 0.00 | 47 | 1017.7 |
| 20260510034640 | 70 | 79 | 5.0 | 8.0 | 0.00 | 0.00 | 0.00 | 47 | 1017.8 |
| 20260510034125 | 70 | 72 | 3.0 | 7.0 | 0.00 | 0.00 | 0.00 | 49 | 1017.8 |
| 20260510033634 | 70 | 81 | 5.0 | 9.0 | 0.00 | 0.00 | 0.00 | 49 | 1017.8 |
| 20260510033115 | 70 | 58 | 5.0 | 9.0 | 0.00 | 0.00 | 0.00 | 48 | 1017.9 |
| 20260510032625 | 69 | 136 | 4.0 | 8.0 | 0.00 | 0.00 | 0.00 | 49 | 1017.9 |
| 20260510032134 | 69 | 134 | 2.0 | 9.0 | 0.00 | 0.00 | 0.00 | 51 | 1018.0 |
| 20260510031615 | 70 | 44 | 5.0 | 8.0 | 0.00 | 0.00 | 0.00 | 50 | 1018.0 |
| 20260510031145 | 69 | 120 | 3.0 | 7.0 | 0.00 | 0.00 | 0.00 | 53 | 1018.1 |
| 20260510030614 | 70 | 71 | 4.0 | 7.0 | 0.00 | 0.00 | 0.00 | 50 | 1018.1 |
| 20260510030120 | 69 | 167 | 2.0 | 7.0 | 0.00 | 0.00 | 0.00 | 53 | 1018.3 |
| 20260510025631 | 69 | 130 | 3.0 | 8.0 | 0.00 | 0.00 | 0.00 | 53 | 1018.2 |
| 20260510025113 | 68 | 60 | 4.0 | 9.0 | 0.00 | 0.00 | 0.00 | 53 | 1018.3 |
| 20260510024622 | 68 | 38 | 5.0 | 9.0 | 0.00 | 0.00 | 0.00 | 54 | 1018.3 |
| 20260510024131 | 68 | 40 | 4.0 | 7.0 | 0.00 | 0.00 | 0.00 | 54 | 1018.3 |
| 20260510023615 | 68 | 80 | 2.0 | 8.0 | 0.00 | 0.00 | 0.00 | 53 | 1018.2 |
| 20260510023123 | 68 | 75 | 5.0 | 8.0 | 0.00 | 0.00 | 0.00 | 51 | 1018.3 |
| 20260510022614 | 68 | 40 | 4.0 | 7.0 | 0.00 | 0.00 | 0.00 | 52 | 1018.3 |
| 20260510022140 | 68 | 84 | 3.0 | 6.0 | 0.00 | 0.00 | 0.00 | 52 | 1018.3 |
| 20260510021629 | 68 | 49 | 2.0 | 6.0 | 0.00 | 0.00 | 0.00 | 50 | 1018.3 |
| 20260510021158 | 68 | 13 | 3.0 | 6.0 | 0.00 | 0.00 | 0.00 | 52 | 1018.3 |
| 20260510020619 | 68 | 33 | 3.0 | 7.0 | 0.00 | 0.00 | 0.00 | 49 | 1018.4 |
| 20260510020128 | 67 | 87 | 3.0 | 7.0 | 0.00 | 0.00 | 0.00 | 49 | 1018.5 |
| 20260510015611 | 68 | 56 | 4.0 | 6.0 | 0.00 | 0.00 | 0.00 | 55 | 1018.3 |
| 20260510015111 | 68 | 77 | 3.0 | 5.0 | 0.00 | 0.00 | 0.00 | 55 | 1018.4 |
| 20260510014638 | 67 | 169 | 3.0 | 8.0 | 0.00 | 0.00 | 0.00 | 56 | 1018.5 |
| 20260510014117 | 67 | 43 | 4.0 | 7.0 | 0.00 | 0.00 | 0.00 | 54 | 1018.6 |
| 20260510013628 | 66 | 91 | 3.0 | 6.0 | 0.00 | 0.00 | 0.00 | 55 | 1018.6 |
| 20260510013137 | 66 | 79 | 3.0 | 7.0 | 0.00 | 0.00 | 0.00 | 58 | 1018.7 |
| 20260510012617 | 66 | 87 | 4.0 | 7.0 | 0.00 | 0.00 | 0.00 | 59 | 1018.7 |
| 20260510012127 | 66 | 70 | 4.0 | 8.0 | 0.00 | 0.00 | 0.00 | 59 | 1018.7 |
| 20260510011637 | 66 | 79 | 5.0 | 8.0 | 0.00 | 0.00 | 0.00 | 60 | 1018.8 |
| 20260510011120 | 66 | 82 | 4.0 | 7.0 | 0.00 | 0.00 | 0.00 | 60 | 1018.8 |
| 20260510010626 | 66 | 39 | 3.0 | 7.0 | 0.00 | 0.00 | 0.00 | 60 | 1018.9 |
| 20260510010133 | 66 | 7 | 4.0 | 7.0 | 0.00 | 0.00 | 0.00 | 58 | 1018.8 |
| 20260510005615 | 66 | 56 | 3.0 | 6.0 | 0.00 | 0.00 | 0.00 | 61 | 1018.8 |
| 20260510005124 | 66 | 45 | 3.0 | 6.0 | 0.00 | 0.00 | 0.00 | 63 | 1018.6 |
| 20260510004632 | 65 | 68 | 3.0 | 6.0 | 0.00 | 0.00 | 0.00 | 62 | 1018.6 |
| 20260510004114 | 66 | 30 | 3.0 | 6.0 | 0.00 | 0.00 | 0.00 | 61 | 1018.6 |
| 20260510003622 | 65 | 84 | 1.0 | 6.0 | 0.00 | 0.00 | 0.00 | 60 | 1018.6 |
| 20260510003111 | 65 | 68 | 3.0 | 6.0 | 0.00 | 0.00 | 0.00 | 61 | 1018.6 |
| 20260510002618 | 65 | 187 | 3.0 | 7.0 | 0.00 | 0.00 | 0.00 | 58 | 1018.6 |
| 20260510002130 | 65 | 174 | 2.0 | 7.0 | 0.00 | 0.00 | 0.00 | 59 | 1018.5 |
| 20260510001119 | 64 | 284 | 1.0 | 3.0 | 0.00 | 0.00 | 0.00 | 58 | 1018.6 |
| 20260510000628 | 64 | 203 | 1.0 | 3.0 | 0.00 | 0.00 | 0.00 | 56 | 1018.8 |
| 20260510000159 | 64 | 76 | 2.0 | 3.0 | 0.00 | 0.00 | 0.00 | 57 | 1018.7 |
| 20260509235621 | 64 | 189 | 2.0 | 4.0 | 0.00 | 0.00 | 0.00 | 58 | 1018.8 |
| 20260509235129 | 63 | 74 | 2.0 | 4.0 | 0.00 | 0.00 | 0.00 | 58 | 1018.7 |
| 20260509234636 | 63 | 167 | 1.0 | 4.0 | 0.00 | 0.00 | 0.00 | 58 | 1018.7 |
| 20260509234120 | 64 | 97 | 1.0 | 4.0 | 0.00 | 0.00 | 0.00 | 59 | 1018.7 |
| 20260509233628 | 63 | 130 | 1.0 | 3.0 | 0.00 | 0.00 | 0.00 | 60 | 1018.7 |
| 20260509233133 | 63 | 49 | 2.0 | 4.0 | 0.00 | 0.00 | 0.00 | 59 | 1018.7 |
| 20260509232616 | 62 | 148 | 2.0 | 4.0 | 0.00 | 0.00 | 0.00 | 59 | 1018.6 |
| 20260509232126 | 62 | 178 | 0.0 | 3.0 | 0.00 | 0.00 | 0.00 | 59 | 1018.6 |
| 20260509231636 | 62 | 189 | 1.0 | 3.0 | 0.00 | 0.00 | 0.00 | 59 | 1018.7 |
| 20260509231118 | 62 | 82 | 1.0 | 2.0 | 0.00 | 0.00 | 0.00 | 60 | 1018.7 |
| 20260509230645 | 61 | 178 | 0.0 | 1.0 | 0.00 | 0.00 | 0.00 | 59 | 1018.6 |
| 20260509230132 | 61 | 172 | 0.0 | 1.0 | 0.00 | 0.00 | 0.00 | 60 | 1018.6 |
| 20260509225615 | 61 | 172 | 1.0 | 2.0 | 0.00 | 0.00 | 0.00 | 60 | 1018.6 |
| 20260509225125 | 60 | 172 | 1.0 | 2.0 | 0.00 | 0.00 | 0.00 | 59 | 1018.5 |
| 20260509224633 | 59 | 167 | 0.0 | 3.0 | 0.00 | 0.00 | 0.00 | 60 | 1018.6 |
| 20260509224135 | 58 | 180 | 1.0 | 3.0 | 0.00 | 0.00 | 0.00 | 59 | 1018.5 |
| 20260509223626 | 58 | 167 | 1.0 | 3.0 | 0.00 | 0.00 | 0.00 | 58 | 1018.6 |
| 20260509223152 | 58 | 176 | 1.0 | 2.0 | 0.00 | 0.00 | 0.00 | 60 | 1018.7 |
| 20260509222613 | 58 | 175 | 0.0 | 2.0 | 0.00 | 0.00 | 0.00 | 67 | 1018.7 |
| 20260509222144 | 57 | 176 | 0.0 | 2.0 | 0.00 | 0.00 | 0.00 | 67 | 1018.6 |
| 20260509221632 | 56 | 175 | 1.0 | 2.0 | 0.00 | 0.00 | 0.00 | 68 | 1018.7 |
| 20260509221113 | 56 | 179 | 1.0 | 2.0 | 0.00 | 0.00 | 0.00 | 69 | 1018.7 |
| 20260509220623 | 55 | 176 | 1.0 | 2.0 | 0.00 | 0.00 | 0.00 | 69 | 1018.7 |
| 20260509220133 | 55 | 176 | 0.0 | 0.0 | 0.00 | 0.00 | 0.00 | 75 | 1018.6 |
| 20260509215617 | 54 | 176 | 0.0 | 0.0 | 0.00 | 0.00 | 0.00 | 78 | 1018.7 |
| 20260509215124 | 53 | 176 | 0.0 | 0.0 | 0.00 | 0.00 | 0.00 | 79 | 1018.7 |
| 20260509214656 | 51 | 176 | 0.0 | 0.0 | 0.00 | 0.00 | 0.00 | 80 | 1018.6 |
| 20260509214118 | 50 | 176 | 0.0 | 0.0 | 0.00 | 0.00 | 0.00 | 80 | 1018.5 |
| 20260509213629 | 50 | 176 | 0.0 | 0.0 | 0.00 | 0.00 | 0.00 | 82 | 1018.6 |
| 20260509213112 | 49 | 176 | 0.0 | 1.0 | 0.00 | 0.00 | 0.00 | 82 | 1018.5 |
| 20260509212622 | 48 | 176 | 0.0 | 1.0 | 0.00 | 0.00 | 0.00 | 83 | 1018.4 |
| 20260509212133 | 47 | 176 | 0.0 | 0.0 | 0.00 | 0.00 | 0.00 | 83 | 1018.3 |
| 20260509211619 | 47 | 176 | 0.0 | 1.0 | 0.00 | 0.00 | 0.00 | 83 | 1018.3 |
| 20260509211111 | 47 | 176 | 0.0 | 1.0 | 0.00 | 0.00 | 0.00 | 83 | 1018.4 |
| 20260509210637 | 47 | 176 | 0.0 | 1.0 | 0.00 | 0.00 | 0.00 | 84 | 1018.3 |
| 20260509210122 | 46 | 176 | 0.0 | 1.0 | 0.00 | 0.00 | 0.00 | 84 | 1018.3 |
| 20260509205633 | 46 | 176 | 0.0 | 0.0 | 0.00 | 0.00 | 0.00 | 83 | 1018.1 |
| 20260509205111 | 46 | 176 | 0.0 | 0.0 | 0.00 | 0.00 | 0.00 | 83 | 1018.1 |
| 20260509204622 | 46 | 176 | 0.0 | 1.0 | 0.00 | 0.00 | 0.00 | 83 | 1018.1 |
| 20260509204132 | 46 | 176 | 0.0 | 1.0 | 0.00 | 0.00 | 0.00 | 83 | 1018.0 |
| 20260509203617 | 46 | 176 | 0.0 | 1.0 | 0.00 | 0.00 | 0.00 | 83 | 1018.0 |
| 20260509203120 | 46 | 176 | 0.0 | 1.0 | 0.00 | 0.00 | 0.00 | 83 | 1017.9 |
| 20260509202632 | 46 | 176 | 0.0 | 1.0 | 0.00 | 0.00 | 0.00 | 83 | 1017.9 |
| 20260509202115 | 46 | 176 | 0.0 | 1.0 | 0.00 | 0.00 | 0.00 | 83 | 1017.6 |
| 20260509201649 | 46 | 176 | 0.0 | 1.0 | 0.00 | 0.00 | 0.00 | 83 | 1017.6 |
| 20260509201137 | 46 | 176 | 0.0 | 1.0 | 0.00 | 0.00 | 0.00 | 83 | 1017.6 |
| 20260509200619 | 47 | 176 | 0.0 | 1.0 | 0.00 | 0.00 | 0.00 | 83 | 1017.5 |
| 20260509200148 | 47 | 176 | 0.0 | 2.0 | 0.00 | 0.00 | 0.00 | 83 | 1017.6 |
| 20260509195637 | 47 | 176 | 0.0 | 2.0 | 0.00 | 0.00 | 0.00 | 83 | 1017.5 |
| 20260509195115 | 47 | 175 | 1.0 | 1.0 | 0.00 | 0.00 | 0.00 | 83 | 1017.5 |
| 20260509194626 | 47 | 175 | 0.0 | 1.0 | 0.00 | 0.00 | 0.00 | 83 | 1017.5 |
| 20260509194135 | 47 | 176 | 0.0 | 1.0 | 0.00 | 0.00 | 0.00 | 83 | 1017.6 |
| 20260509193619 | 47 | 176 | 0.0 | 1.0 | 0.00 | 0.00 | 0.00 | 83 | 1017.6 |
| 20260509193150 | 47 | 176 | 1.0 | 1.0 | 0.00 | 0.00 | 0.00 | 83 | 1017.7 |
| 20260509192638 | 47 | 176 | 0.0 | 2.0 | 0.00 | 0.00 | 0.00 | 83 | 1017.6 |
| 20260509192120 | 48 | 176 | 1.0 | 2.0 | 0.00 | 0.00 | 0.00 | 83 | 1017.6 |
| 20260509191650 | 48 | 176 | 1.0 | 1.0 | 0.00 | 0.00 | 0.00 | 83 | 1017.6 |
| 20260509191134 | 48 | 176 | 1.0 | 1.0 | 0.00 | 0.00 | 0.00 | 82 | 1017.6 |
| 20260509190617 | 48 | 176 | 0.0 | 1.0 | 0.00 | 0.00 | 0.00 | 82 | 1017.7 |
| 20260509190125 | 48 | 176 | 1.0 | 1.0 | 0.00 | 0.00 | 0.00 | 82 | 1017.6 |
| 20260509185635 | 48 | 176 | 1.0 | 2.0 | 0.00 | 0.00 | 0.00 | 82 | 1017.6 |
| 20260509185117 | 48 | 175 | 1.0 | 2.0 | 0.00 | 0.00 | 0.00 | 81 | 1017.6 |
| 20260509184627 | 48 | 178 | 0.0 | 2.0 | 0.00 | 0.00 | 0.00 | 81 | 1017.7 |
| 20260509184137 | 48 | 178 | 1.0 | 2.0 | 0.00 | 0.00 | 0.00 | 81 | 1017.6 |
| 20260509183620 | 48 | 179 | 2.0 | 3.0 | 0.00 | 0.00 | 0.00 | 82 | 1017.5 |
| 20260509183126 | 48 | 207 | 2.0 | 4.0 | 0.00 | 0.00 | 0.00 | 82 | 1017.4 |
| 20260509182636 | 48 | 216 | 1.0 | 3.0 | 0.00 | 0.00 | 0.00 | 82 | 1017.4 |
| 20260509182120 | 49 | 185 | 0.0 | 1.0 | 0.00 | 0.00 | 0.00 | 81 | 1017.3 |
| 20260509181630 | 49 | 185 | 0.0 | 1.0 | 0.00 | 0.00 | 0.00 | 81 | 1017.3 |
| 20260509181130 | 49 | 185 | 0.0 | 1.0 | 0.00 | 0.00 | 0.00 | 80 | 1017.3 |
| 20260509180613 | 49 | 185 | 0.0 | 1.0 | 0.00 | 0.00 | 0.00 | 80 | 1017.1 |
| 20260509180123 | 50 | 185 | 0.0 | 1.0 | 0.00 | 0.00 | 0.00 | 80 | 1017.1 |
| 20260509175633 | 50 | 185 | 1.0 | 1.0 | 0.00 | 0.00 | 0.00 | 80 | 1017.1 |
| 20260509175118 | 50 | 185 | 0.0 | 2.0 | 0.00 | 0.00 | 0.00 | 81 | 1017.1 |
| 20260509174627 | 50 | 186 | 1.0 | 2.0 | 0.00 | 0.00 | 0.00 | 80 | 1017.0 |
| 20260509174206 | 50 | 185 | 1.0 | 1.0 | 0.00 | 0.00 | 0.00 | 81 | 1017.2 |
| 20260509173631 | 50 | 185 | 0.0 | 1.0 | 0.00 | 0.00 | 0.00 | 81 | 1017.1 |
| 20260509173113 | 50 | 185 | 0.0 | 1.0 | 0.00 | 0.00 | 0.00 | 81 | 1017.0 |
| 20260509172612 | 50 | 186 | 1.0 | 2.0 | 0.00 | 0.00 | 0.00 | 81 | 1017.0 |
| 20260509172116 | 50 | 185 | 1.0 | 2.0 | 0.00 | 0.00 | 0.00 | 81 | 1017.1 |
| 20260509171625 | 50 | 185 | 0.0 | 2.0 | 0.00 | 0.00 | 0.00 | 82 | 1017.2 |
| 20260509171135 | 50 | 185 | 0.0 | 1.0 | 0.00 | 0.00 | 0.00 | 82 | 1017.2 |
| 20260509170619 | 50 | 185 | 1.0 | 1.0 | 0.00 | 0.00 | 0.00 | 83 | 1017.0 |
| 20260509170128 | 50 | 185 | 0.0 | 2.0 | 0.00 | 0.00 | 0.00 | 83 | 1017.0 |
| 20260509165611 | 49 | 185 | 1.0 | 2.0 | 0.00 | 0.00 | 0.00 | 83 | 1017.0 |
| 20260509165122 | 49 | 185 | 0.0 | 1.0 | 0.00 | 0.00 | 0.00 | 83 | 1017.0 |
| 20260509164633 | 49 | 185 | 0.0 | 0.0 | 0.00 | 0.00 | 0.00 | 82 | 1017.1 |
| 20260509164137 | 49 | 185 | 0.0 | 0.0 | 0.00 | 0.00 | 0.00 | 82 | 1017.1 |
| 20260509163629 | 50 | 185 | 0.0 | 0.0 | 0.00 | 0.00 | 0.00 | 82 | 1017.2 |
| 20260509163137 | 50 | 185 | 0.0 | 1.0 | 0.00 | 0.00 | 0.00 | 82 | 1017.2 |
| 20260509162619 | 50 | 185 | 0.0 | 1.0 | 0.00 | 0.00 | 0.00 | 82 | 1017.0 |
| 20260509162129 | 50 | 185 | 1.0 | 1.0 | 0.00 | 0.00 | 0.00 | 82 | 1017.2 |
| 20260509161611 | 50 | 192 | 0.0 | 2.0 | 0.00 | 0.00 | 0.00 | 81 | 1017.1 |
| 20260509161132 | 50 | 192 | 1.0 | 3.0 | 0.00 | 0.00 | 0.00 | 82 | 1017.2 |
| 20260509160621 | 50 | 184 | 1.0 | 2.0 | 0.00 | 0.00 | 0.00 | 81 | 1017.2 |
| 20260509160126 | 50 | 184 | 1.0 | 2.0 | 0.00 | 0.00 | 0.00 | 81 | 1017.3 |
| 20260509155636 | 51 | 184 | 1.0 | 2.0 | 0.00 | 0.00 | 0.00 | 81 | 1017.4 |
| 20260509155140 | 51 | 185 | 1.0 | 2.0 | 0.00 | 0.00 | 0.00 | 81 | 1017.4 |
| 20260509154628 | 51 | 185 | 0.0 | 2.0 | 0.00 | 0.00 | 0.00 | 81 | 1017.4 |
| 20260509154158 | 51 | 186 | 1.0 | 2.0 | 0.00 | 0.00 | 0.00 | 80 | 1017.5 |
| 20260509153640 | 51 | 186 | 1.0 | 2.0 | 0.00 | 0.00 | 0.00 | 80 | 1017.6 |
| 20260509152641 | 52 | 184 | 1.0 | 3.0 | 0.00 | 0.00 | 0.00 | 79 | 1017.7 |
| 20260509152126 | 52 | 169 | 1.0 | 2.0 | 0.00 | 0.00 | 0.00 | 79 | 1017.7 |
| 20260509151636 | 52 | 169 | 1.0 | 2.0 | 0.00 | 0.00 | 0.00 | 79 | 1017.7 |
| 20260509151119 | 52 | 167 | 1.0 | 2.0 | 0.00 | 0.00 | 0.00 | 79 | 1017.8 |
| 20260509150629 | 52 | 167 | 0.0 | 1.0 | 0.00 | 0.00 | 0.00 | 79 | 1017.7 |
| 20260509150137 | 52 | 167 | 1.0 | 1.0 | 0.00 | 0.00 | 0.00 | 79 | 1017.6 |
| 20260509145635 | 52 | 167 | 0.0 | 1.0 | 0.00 | 0.00 | 0.00 | 78 | 1017.6 |
| 20260509145126 | 53 | 167 | 0.0 | 1.0 | 0.00 | 0.00 | 0.00 | 78 | 1017.6 |
| 20260509144656 | 53 | 167 | 0.0 | 1.0 | 0.00 | 0.00 | 0.00 | 77 | 1017.7 |
| 20260509144111 | 53 | 167 | 0.0 | 2.0 | 0.00 | 0.00 | 0.00 | 77 | 1017.8 |
| 20260509143621 | 53 | 167 | 1.0 | 2.0 | 0.00 | 0.00 | 0.00 | 77 | 1017.9 |
| 20260509143129 | 53 | 167 | 1.0 | 2.0 | 0.00 | 0.00 | 0.00 | 77 | 1017.9 |
| 20260509142612 | 53 | 139 | 0.0 | 1.0 | 0.00 | 0.00 | 0.00 | 77 | 1018.1 |
| 20260509142147 | 53 | 139 | 0.0 | 1.0 | 0.00 | 0.00 | 0.00 | 76 | 1018.0 |
| 20260509141637 | 54 | 139 | 0.0 | 1.0 | 0.00 | 0.00 | 0.00 | 76 | 1018.1 |
| 20260509141118 | 54 | 139 | 0.0 | 1.0 | 0.00 | 0.00 | 0.00 | 75 | 1018.1 |
| 20260509140629 | 54 | 139 | 0.0 | 1.0 | 0.00 | 0.00 | 0.00 | 75 | 1018.1 |
| 20260509140132 | 54 | 139 | 1.0 | 1.0 | 0.00 | 0.00 | 0.00 | 74 | 1018.1 |
| 20260509135615 | 55 | 136 | 0.0 | 1.0 | 0.00 | 0.00 | 0.00 | 73 | 1018.2 |
| 20260509135125 | 55 | 136 | 0.0 | 1.0 | 0.00 | 0.00 | 0.00 | 73 | 1018.1 |
| 20260509134636 | 55 | 136 | 0.0 | 1.0 | 0.00 | 0.00 | 0.00 | 72 | 1018.1 |
| 20260509134121 | 55 | 136 | 0.0 | 1.0 | 0.00 | 0.00 | 0.00 | 72 | 1018.1 |
| 20260509133634 | 55 | 136 | 0.0 | 1.0 | 0.00 | 0.00 | 0.00 | 71 | 1018.1 |
| 20260509133137 | 56 | 136 | 0.0 | 1.0 | 0.00 | 0.00 | 0.00 | 70 | 1018.2 |
| 20260509132618 | 56 | 135 | 0.0 | 1.0 | 0.00 | 0.00 | 0.00 | 70 | 1018.1 |
| 20260509132124 | 57 | 135 | 0.0 | 1.0 | 0.00 | 0.00 | 0.00 | 69 | 1018.1 |
| 20260509131633 | 57 | 135 | 0.0 | 1.0 | 0.00 | 0.00 | 0.00 | 68 | 1018.1 |
| 20260509131117 | 58 | 135 | 0.0 | 1.0 | 0.00 | 0.00 | 0.00 | 68 | 1018.0 |
| 20260509130628 | 58 | 135 | 0.0 | 2.0 | 0.00 | 0.00 | 0.00 | 67 | 1018.0 |
| 20260509130136 | 58 | 169 | 1.0 | 3.0 | 0.00 | 0.00 | 0.00 | 67 | 1017.9 |
| 20260509125617 | 59 | 167 | 2.0 | 3.0 | 0.00 | 0.00 | 0.00 | 67 | 1017.9 |
| 20260509125118 | 59 | 176 | 1.0 | 3.0 | 0.00 | 0.00 | 0.00 | 67 | 1017.9 |
| 20260509124624 | 59 | 195 | 2.0 | 3.0 | 0.00 | 0.00 | 0.00 | 67 | 1017.7 |
| 20260509124135 | 59 | 162 | 1.0 | 3.0 | 0.00 | 0.00 | 0.00 | 67 | 1017.7 |
| 20260509123618 | 59 | 176 | 1.0 | 4.0 | 0.00 | 0.00 | 0.00 | 67 | 1017.6 |
| 20260509122638 | 59 | 174 | 1.0 | 4.0 | 0.00 | 0.00 | 0.00 | 66 | 1017.6 |
| 20260509122127 | 59 | 167 | 1.0 | 4.0 | 0.00 | 0.00 | 0.00 | 66 | 1017.5 |
| 20260509121636 | 59 | 180 | 0.0 | 3.0 | 0.00 | 0.00 | 0.00 | 66 | 1017.5 |
| 20260509121119 | 59 | 178 | 1.0 | 3.0 | 0.00 | 0.00 | 0.00 | 66 | 1017.4 |
| 20260509120627 | 59 | 185 | 1.0 | 2.0 | 0.00 | 0.00 | 0.00 | 66 | 1017.3 |
| 20260509120132 | 59 | 174 | 1.0 | 4.0 | 0.00 | 0.00 | 0.00 | 66 | 1017.1 |
| 20260509115616 | 60 | 180 | 1.0 | 3.0 | 0.00 | 0.00 | 0.00 | 66 | 1017.0 |
| 20260509115126 | 60 | 184 | 2.0 | 6.0 | 0.00 | 0.00 | 0.00 | 65 | 1017.0 |
| 20260509114648 | 60 | 172 | 2.0 | 5.0 | 0.00 | 0.00 | 0.00 | 65 | 1017.0 |
| 20260509114157 | 60 | 183 | 2.0 | 5.0 | 0.00 | 0.00 | 0.00 | 65 | 1017.0 |
| 20260509113637 | 60 | 142 | 2.0 | 4.0 | 0.00 | 0.00 | 0.00 | 66 | 1016.8 |
| 20260509113125 | 60 | 158 | 0.0 | 2.0 | 0.00 | 0.00 | 0.00 | 66 | 1016.8 |
| 20260509112615 | 60 | 184 | 1.0 | 3.0 | 0.00 | 0.00 | 0.00 | 65 | 1016.9 |
| 20260509112111 | 60 | 184 | 0.0 | 3.0 | 0.00 | 0.00 | 0.00 | 64 | 1016.8 |
| 20260509111622 | 61 | 184 | 1.0 | 5.0 | 0.00 | 0.00 | 0.00 | 64 | 1016.7 |
| 20260509111132 | 61 | 181 | 1.0 | 5.0 | 0.00 | 0.00 | 0.00 | 63 | 1016.7 |
| 20260509110614 | 61 | 216 | 2.0 | 5.0 | 0.00 | 0.00 | 0.00 | 62 | 1016.6 |
| 20260509110123 | 62 | 203 | 3.0 | 6.0 | 0.00 | 0.00 | 0.00 | 62 | 1016.5 |
| 20260509105654 | 62 | 186 | 2.0 | 8.0 | 0.00 | 0.00 | 0.00 | 61 | 1016.4 |
| 20260509105114 | 62 | 198 | 5.0 | 10.0 | 0.00 | 0.00 | 0.00 | 61 | 1016.3 |
| 20260509104619 | 62 | 172 | 5.0 | 10.0 | 0.00 | 0.00 | 0.00 | 60 | 1016.3 |
| 20260509104150 | 63 | 180 | 3.0 | 9.0 | 0.00 | 0.00 | 0.00 | 60 | 1016.1 |
| 20260509103632 | 63 | 175 | 3.0 | 9.0 | 0.00 | 0.00 | 0.00 | 59 | 1016.1 |
| 20260509103120 | 63 | 213 | 4.0 | 7.0 | 0.00 | 0.00 | 0.00 | 59 | 1016.1 |
| 20260509102630 | 63 | 187 | 2.0 | 11.0 | 0.00 | 0.00 | 0.00 | 58 | 1016.0 |
| 20260509102113 | 64 | 212 | 5.0 | 11.0 | 0.00 | 0.00 | 0.00 | 57 | 1016.0 |
| 20260509101613 | 64 | 174 | 3.0 | 7.0 | 0.00 | 0.00 | 0.00 | 57 | 1015.9 |
| 20260509100633 | 65 | 212 | 3.0 | 7.0 | 0.00 | 0.00 | 0.00 | 56 | 1015.8 |
| 20260509100115 | 65 | 183 | 2.0 | 10.0 | 0.00 | 0.00 | 0.00 | 55 | 1015.6 |
| 20260509095624 | 66 | 220 | 4.0 | 10.0 | 0.00 | 0.00 | 0.00 | 54 | 1015.6 |
| 20260509095154 | 66 | 184 | 4.0 | 8.0 | 0.00 | 0.00 | 0.00 | 53 | 1015.6 |
| 20260509094616 | 66 | 207 | 4.0 | 8.0 | 0.00 | 0.00 | 0.00 | 52 | 1015.5 |
| 20260509094124 | 67 | 162 | 4.0 | 10.0 | 0.00 | 0.00 | 0.00 | 51 | 1015.6 |
| 20260509093146 | 68 | 205 | 4.0 | 11.0 | 0.00 | 0.00 | 0.00 | 49 | 1015.5 |
| 20260509092635 | 69 | 223 | 5.0 | 11.0 | 0.00 | 0.00 | 0.00 | 47 | 1015.5 |
| 20260509092114 | 69 | 243 | 4.0 | 10.0 | 0.00 | 0.00 | 0.00 | 46 | 1015.5 |
| 20260509091624 | 70 | 176 | 5.0 | 10.0 | 0.00 | 0.00 | 0.00 | 44 | 1015.6 |
| 20260509091134 | 70 | 247 | 6.0 | 10.0 | 0.00 | 0.00 | 0.00 | 43 | 1015.5 |
| 20260509090617 | 71 | 208 | 3.0 | 7.0 | 0.00 | 0.00 | 0.00 | 42 | 1015.4 |
| 20260509090147 | 72 | 174 | 3.0 | 7.0 | 0.00 | 0.00 | 0.00 | 40 | 1015.4 |
| 20260509085634 | 72 | 186 | 2.0 | 9.0 | 0.00 | 0.00 | 0.00 | 40 | 1015.4 |
| 20260509085116 | 72 | 141 | 4.0 | 9.0 | 0.00 | 0.00 | 0.00 | 40 | 1015.3 |
| 20260509084626 | 73 | 141 | 2.0 | 6.0 | 0.00 | 0.00 | 0.00 | 39 | 1015.3 |
| 20260509084154 | 72 | 135 | 2.0 | 6.0 | 0.00 | 0.00 | 0.00 | 39 | 1015.3 |
| 20260509083116 | 73 | 116 | 2.0 | 8.0 | 0.00 | 0.00 | 0.00 | 39 | 1015.1 |
| 20260509082625 | 73 | 128 | 3.0 | 9.0 | 0.00 | 0.00 | 0.00 | 38 | 1015.1 |
| 20260509082135 | 73 | 156 | 3.0 | 9.0 | 0.00 | 0.00 | 0.00 | 38 | 1015.0 |
| 20260509081618 | 73 | 162 | 2.0 | 7.0 | 0.00 | 0.00 | 0.00 | 37 | 1015.0 |
| 20260509081149 | 73 | 125 | 4.0 | 8.0 | 0.00 | 0.00 | 0.00 | 38 | 1015.0 |
| 20260509080659 | 73 | 132 | 3.0 | 8.0 | 0.00 | 0.00 | 0.00 | 36 | 1015.0 |
| 20260509080113 | 73 | 149 | 2.0 | 8.0 | 0.00 | 0.00 | 0.00 | 38 | 1014.9 |